Regional Weather Roundup
Issued by NWS

Home | Current Version | Previous Version | Graphics & Text | Print | Product List | Glossary On
Versions: 1 2 3 4 5 6 7 8 9 10 11 12 13 14 15 16 17 18 19 20 21 22 23 24 25 26 27 28 29 30 31 32 33 34 35 36 37 38 39 40 41 42 43 44 45 46 47 48 49 50
000
ASUS43 KFSD 241002
RWRSD

WEATHER ROUNDUP FOR SOUTH DAKOTA
NATIONAL WEATHER SERVICE SIOUX FALLS SD
500 AM CDT SUN JUL 24 2016

NOTE: "FAIR" INDICATES FEW OR NO CLOUDS BELOW 12,000 FEET WITH NO
SIGNIFICANT WEATHER AND/OR OBSTRUCTIONS TO VISIBILITY.


SDZ001>005-009-010-012>017-241100-
NORTHWEST AND NORTH CENTRAL SOUTH DAKOTA

CITY           SKY/WX    TMP DP  RH WIND       PRES   REMARKS
BUFFALO          N/A     62  48  60 W3        30.04S
FAITH            N/A     57  45  64 W6        30.05F
MOBRIDGE       CLEAR     61  55  81 NW3       29.99S
$$

SDZ012>016-024>037-041>051-057-063-072>074-241100-
SOUTHWEST AND SOUTH CENTRAL SOUTH DAKOTA

CITY           SKY/WX    TMP DP  RH WIND       PRES   REMARKS
RAPID CTY ARPT CLOUDY    66  45  46 CALM      30.11R THUNDER
PIERRE         CLEAR     65  54  67 NW9       29.97F
CUSTER         RAIN      56  46  69 NE9       30.20F
ELLSWORTH AFB  TSTM      66  48  52 NW6       30.08
PHILIP         CLOUDY    67  49  52 SW3       30.02R THUNDER
PINE RIDGE     CLEAR     58  52  80 NE3       30.08R
WINNER         FAIR      67  56  67 W8        29.98R
$$

SDZ004>011-016>023-039-040-241100-
NORTHEAST SOUTH DAKOTA

CITY           SKY/WX    TMP DP  RH WIND       PRES   REMARKS
ABERDEEN       CLEAR     60  56  86 W7        29.94R
WATERTOWN      CLEAR     69  63  81 NW12      29.92R
BROOKINGS      CLEAR     66  65  96 NW5       29.91S FOG
SISSETON         N/A     66  58  75 NW12      29.86R
$$

SDZ017-020-022-023-036>040-048>070-241100-
SOUTHEAST SOUTH DAKOTA

CITY           SKY/WX    TMP DP  RH WIND       PRES   REMARKS
SIOUX FALLS    PTCLDY    68  65  90 NW5       29.90S
HURON          CLEAR     62  59  90 NW10      29.93S
CHAMBERLAIN    PTCLDY    70  63  78 N12       29.95F
MITCHELL       CLEAR     66  63  90 W7        29.93S
YANKTON        PTCLDY    70  64  83 NW5       29.91S
$$

ABBREVIATIONS USED IN REMARKS
   TC - TEMPERATURE IN CELSIUS
  WCI - WIND CHILL INDEX
   HX - HEAT INDEX
  VSB - VISIBILITY





USA.gov is the U.S. government's official web portal to all federal, state and local government web resources and services.